Location: Alfortville
(48.8058°N, 2.4204°E)
Time: 13:22:50
(UTC+00:00)

ISS - Visible Passes

Search period start: 02 December 2022 00:00
Search period end: 12 December 2022 00:00
Orbit: 414 x 420 km, 51.6° (Epoch: 02 December)

Date Brightness Start Highest point End Pass type
(mag) Time Alt. Az. Time Alt. Az. Time Alt. Az.
02 Dec -3.8 17:38:41 10° WNW 17:42:02 83° SSW 17:43:11 38° ESE visible
02 Dec -0.2 19:16:00 10° W 19:16:07 11° W 19:16:07 11° W visible
03 Dec -3.8 16:50:32 10° WNW 16:53:54 76° NNE 16:57:14 10° ESE visible
03 Dec -1.9 18:27:32 10° W 18:30:19 28° SW 18:30:19 28° SW visible
04 Dec -2.6 17:39:13 10° WNW 17:42:24 41° SSW 17:44:40 17° SSE visible
05 Dec -3.2 16:50:56 10° WNW 16:54:16 61° SSW 16:57:33 10° SE visible
05 Dec -0.7 18:28:55 10° WSW 18:30:28 13° SW 18:32:01 10° SSW visible
06 Dec -1.1 17:39:57 10° W 17:42:26 19° SW 17:44:55 10° S visible
07 Dec -1.6 16:51:22 10° W 16:54:19 29° SW 16:57:16 10° SSE visible
09 Dec -0.4 16:52:20 10° WSW 16:54:03 13° SW 16:55:45 10° SSW visible
